Volver al catálogo

THOR ABLESTAR DEB

ActivoLEO
NORAD 541·DEBRIS·🇺🇸 United States

Lanzado Jun 29, 1961 desde Cape Canaveral Space Force Station

Loading…

Próximos Pases (próximas 24 horas)

TLE

ActualizadoSource: Space-Track

Época: Sep 14, 2026, 04:45 UTC

1 00541U 61015GA  26257.19814253  .00000116  00000-0  15911-3 0  9996
2 00541  67.2183 191.5672 0079906 209.3372 150.3211 13.86417878284669

Sigue THOR ABLESTAR DEB en tiempo real con AllMySat

Download on the App Store